sat.trackr.live / text

‹ back to catalog

ONEWEB-0321

NORAD 49191 · 2021-083F

PAYLOAD ACTIVE UNKNOWN

§ Identity

Operator
Country
UK
Launch date
2021-09-14
Launch site
TYMSC
Launch vehicle
Mass (kg)
RCS (m²)

Purposes: comms

External: N2YO · Heavens-Above · Gunter

§ Orbital elements

Epoch: 2026-09-03T23:42:52.049088Z

Period
109.03 min
Inclination
87.9134°
Eccentricity
0.0002122
Mean motion
13.20772336 rev/d
Perigee alt
1,180.2 km
Apogee alt
1,183.4 km
Semi-major
7,559.9 km
B*
1.0488e-4
RAAN
258.7180°
Arg perigee
86.2640°
Mean anomaly
273.8736°
Rev number
24,723

§ Raw data

ONEWEB-03211 49191U 21083F   26246.98810242  .00000056  00000+0  10488-3 0  99962 49191  87.9134 258.7180 0002122  86.2640 273.8736 13.20772336247230

JSON: /api/v1/satellites/49191 · /tle

For live sub-satellite position, see the globe view (requires WebGL).

§ Visibility from observer

Set your observer location to see the next 7 days of passes ≥ 10°. The values pass through the URL so the page stays shareable.

No JS? Fill the form by hand. The geolocation button needs JavaScript.